Helena, Arkansas, United States (72342)
Lat: 34.53N, Lon: 90.59W
Wx Zone: ARZ058
Local Info
Past Weather Observations for Wednesday, May 18, 2016

NOTE: This archive is for the closest National Weather Service station to Helena. Information may differ from the station used for current weather conditions.

Click here for Long-term Archive

Time Weather Temperature Dewpoint Humidity Pressure Winds Precip Visibility
23:55
Clear
52°F / 11°C 50°F / 10°C 94% 30.12 in
(1020 mb)
N 3.5 mph
(N 6 kph)
- 10SM
23:35
Clear
50°F / 10°C 48°F / 9°C 94% 30.12 in
(1020 mb)
N 3.5 mph
(N 6 kph)
- 10SM
23:15
Clear
54°F / 12°C 50°F / 10°C 88% 30.12 in
(1020 mb)
N 4.6 mph
(N 7 kph)
- 10SM
22:55
Clear
54°F / 12°C 50°F / 10°C 88% 30.12 in
(1020 mb)
Calm - 10SM
22:35
Clear
54°F / 12°C 50°F / 10°C 88% 30.12 in
(1020 mb)
NNE 3.5 mph
(NNE 6 kph)
- 10SM
22:15
Clear
54°F / 12°C 50°F / 10°C 88% 30.12 in
(1020 mb)
NNE 3.5 mph
(NNE 6 kph)
- 10SM
21:55
Clear
52°F / 11°C 50°F / 10°C 94% 30.12 in
(1020 mb)
N 3.5 mph
(N 6 kph)
- 10SM
21:35
Clear
54°F / 12°C 50°F / 10°C 88% 30.15 in
(1021 mb)
N 3.5 mph
(N 6 kph)
- 10SM
21:15
Clear
55°F / 13°C 50°F / 10°C 82% 30.12 in
(1020 mb)
NE 3.5 mph
(NE 6 kph)
- 10SM
20:55
Clear
55°F / 13°C 50°F / 10°C 82% 30.12 in
(1020 mb)
Calm - 10SM
20:35
Clear
54°F / 12°C 50°F / 10°C 88% 30.12 in
(1020 mb)
NNE 4.6 mph
(NNE 7 kph)
- 10SM
20:15
Clear
55°F / 13°C 50°F / 10°C 82% 30.12 in
(1020 mb)
NNE 4.6 mph
(NNE 7 kph)
- 10SM
19:55
Clear
57°F / 14°C 50°F / 10°C 77% 30.12 in
(1020 mb)
NE 4.6 mph
(NE 7 kph)
- 10SM
19:35
Partly Cloudy
59°F / 15°C 52°F / 11°C 77% 30.12 in
(1020 mb)
NE 5.8 mph
(NE 9 kph)
- 10SM
19:15
Partly Cloudy
61°F / 16°C 52°F / 11°C 72% 30.12 in
(1020 mb)
NE 6.9 mph
(NE 11 kph)
- 10SM
18:55
Mostly Cloudy
61°F / 16°C 52°F / 11°C 72% 30.12 in
(1020 mb)
NE 9.2 mph
(NE 15 kph)
- 10SM
18:35
Overcast
61°F / 16°C 52°F / 11°C 72% 30.12 in
(1020 mb)
NE 11.5 mph
(NE 19 kph)
- 10SM
18:15
Overcast
61°F / 16°C 52°F / 11°C 72% 30.09 in
(1019 mb)
NE 11.5 mph
(NE 19 kph)
- 10SM
17:55
Mostly Cloudy
63°F / 17°C 52°F / 11°C 68% 30.09 in
(1019 mb)
NNE 11.5 mph
(NNE 19 kph)
- 10SM
17:15
Overcast
63°F / 17°C 52°F / 11°C 68% 30.12 in
(1020 mb)
NNE 13.8 mph
(NNE 22 kph)
- 10SM
16:55
Mostly Cloudy
63°F / 17°C 52°F / 11°C 68% 30.09 in
(1019 mb)
NE 11.5 mph
(NE 19 kph)
- 10SM
16:35
Mostly Cloudy
61°F / 16°C 52°F / 11°C 72% 30.09 in
(1019 mb)
NNE 13.8 mph
(NNE 22 kph)
- 10SM
16:15
Mostly Cloudy
61°F / 16°C 52°F / 11°C 72% 30.12 in
(1020 mb)
N 11.5 mph
(N 19 kph)
- 10SM
15:55
Mostly Cloudy
61°F / 16°C 52°F / 11°C 72% 30.12 in
(1020 mb)
N 11.5 mph
(N 19 kph)
- 10SM
15:35
Mostly Cloudy
61°F / 16°C 52°F / 11°C 72% 30.12 in
(1020 mb)
N 12.7 mph
(N 20 kph)
- 10SM
15:15
Mostly Cloudy
61°F / 16°C 52°F / 11°C 72% 30.09 in
(1019 mb)
NE 11.5 mph
(NE 19 kph)
- 10SM
14:55
Mostly Cloudy
63°F / 17°C 52°F / 11°C 68% 30.09 in
(1019 mb)
N 10.4 mph
(N 17 kph)
- 10SM
14:35
Mostly Cloudy
61°F / 16°C 52°F / 11°C 72% 30.12 in
(1020 mb)
N 9.2 mph
(N 15 kph)
- 10SM
14:15
Overcast
61°F / 16°C 52°F / 11°C 72% 30.12 in
(1020 mb)
NNW 10.4 mph
(NNW 17 kph)
- 10SM
13:55
Overcast
61°F / 16°C 52°F / 11°C 72% 30.12 in
(1020 mb)
NE 10.4 mph
(NE 17 kph)
- 10SM
13:35
Overcast
61°F / 16°C 52°F / 11°C 72% 30.12 in
(1020 mb)
N 10.4 mph
(N 17 kph)
- 10SM
13:15
Overcast
59°F / 15°C 52°F / 11°C 77% 30.12 in
(1020 mb)
N 9.2 mph
(N 15 kph)
- 10SM
12:55
Overcast
59°F / 15°C 52°F / 11°C 77% 30.12 in
(1020 mb)
N 10.4 mph
(N 17 kph)
- 10SM
12:35
Overcast
61°F / 16°C 52°F / 11°C 72% 30.15 in
(1021 mb)
N 11.5 mph
(N 19 kph)
- 10SM
12:15
Overcast
59°F / 15°C 52°F / 11°C 77% 30.12 in
(1020 mb)
N 9.2 mph
(N 15 kph)
- 10SM
11:55
Overcast
59°F / 15°C 52°F / 11°C 77% 30.12 in
(1020 mb)
N 10.4 mph
(N 17 kph)
- 10SM
11:35
Overcast
59°F / 15°C 52°F / 11°C 77% 30.12 in
(1020 mb)
N 12.7 mph
(N 20 kph)
- 10SM
11:15
Overcast
59°F / 15°C 52°F / 11°C 77% 30.15 in
(1021 mb)
N 12.7 mph
(N 20 kph)
- 10SM
10:55
Overcast
59°F / 15°C 52°F / 11°C 77% 30.15 in
(1021 mb)
N 11.5 mph
(N 19 kph)
- 10SM
10:35
Overcast
59°F / 15°C 52°F / 11°C 77% 30.15 in
(1021 mb)
NE 12.7 mph
(NE 20 kph)
- 10SM
10:15
Overcast
57°F / 14°C 52°F / 11°C 82% 30.15 in
(1021 mb)
N 11.5 mph
(N 19 kph)
- 10SM
09:55
Overcast
57°F / 14°C 52°F / 11°C 82% 30.15 in
(1021 mb)
N 11.5 mph
(N 19 kph)
- 10SM
09:35
Overcast
57°F / 14°C 52°F / 11°C 82% 30.15 in
(1021 mb)
N 11.5 mph
(N 19 kph)
- 10SM
09:15
Overcast
57°F / 14°C 52°F / 11°C 82% 30.12 in
(1020 mb)
N 12.7 mph
(N 20 kph)
- 10SM
08:55
Overcast
57°F / 14°C 52°F / 11°C 82% 30.12 in
(1020 mb)
N 12.7 mph
(N 20 kph)
- 10SM
08:35
Overcast
55°F / 13°C 52°F / 11°C 88% 30.12 in
(1020 mb)
N 12.7 mph
(N 20 kph)
- 10SM
08:15
Overcast
55°F / 13°C 52°F / 11°C 88% 30.12 in
(1020 mb)
N 12.7 mph
(N 20 kph)
- 10SM
07:55
Overcast
55°F / 13°C 52°F / 11°C 88% 30.12 in
(1020 mb)
N 11.5 mph
(N 19 kph)
- 10SM
07:35
Overcast
55°F / 13°C 52°F / 11°C 88% 30.12 in
(1020 mb)
N 13.8 mph
(N 22 kph)
- 10SM
07:15
Overcast
55°F / 13°C 52°F / 11°C 88% 30.12 in
(1020 mb)
NNW 12.7 mph
(NNW 20 kph)
- 10SM
06:55
Overcast
55°F / 13°C 52°F / 11°C 88% 30.12 in
(1020 mb)
NNW 11.5 mph
(NNW 19 kph)
- 10SM
06:35
Overcast
55°F / 13°C 52°F / 11°C 88% 30.12 in
(1020 mb)
N 12.7 mph
(N 20 kph)
- 10SM
06:15
Overcast
55°F / 13°C 52°F / 11°C 88% 30.09 in
(1019 mb)
N 10.4 mph
(N 17 kph)
- 10SM
05:55
Overcast
55°F / 13°C 52°F / 11°C 88% 30.09 in
(1019 mb)
N 11.5 mph
(N 19 kph)
- 10SM
05:35
Overcast
55°F / 13°C 52°F / 11°C 88% 30.09 in
(1019 mb)
N 12.7 mph
(N 20 kph)
- 10SM
05:15
Overcast
55°F / 13°C 52°F / 11°C 88% 30.09 in
(1019 mb)
N 15 mph
(N 24 kph)
- 10SM
04:55
Overcast
55°F / 13°C 52°F / 11°C 88% 30.09 in
(1019 mb)
N 10.4 mph
(N 17 kph)
- 10SM
04:35
Overcast
55°F / 13°C 52°F / 11°C 88% 30.06 in
(1018 mb)
N 13.8 mph
(N 22 kph)
- 10SM
04:15
Overcast
55°F / 13°C 52°F / 11°C 88% 30.06 in
(1018 mb)
N 15 mph
(N 24 kph)
- 10SM
03:55
Overcast
55°F / 13°C 52°F / 11°C 88% 30.06 in
(1018 mb)
N 12.7 mph
(N 20 kph)
- 10SM
03:35
Overcast
55°F / 13°C 52°F / 11°C 88% 30.06 in
(1018 mb)
N 17.3 mph
(N 28 kph)
- 10SM
03:15
Overcast
55°F / 13°C 52°F / 11°C 88% 30.06 in
(1018 mb)
N 11.5 mph
(N 19 kph)
- 10SM
02:55
Overcast
55°F / 13°C 52°F / 11°C 88% 30.04 in
(1017 mb)
N 18.4 mph
(N 30 kph)
- 10SM
02:35
Overcast
55°F / 13°C 52°F / 11°C 88% 30.04 in
(1017 mb)
N 13.8 mph
(N 22 kph)
- 10SM
02:15
Overcast
55°F / 13°C 52°F / 11°C 88% 30.04 in
(1017 mb)
N 18.4 mph
(N 30 kph)
- 10SM
01:55
Overcast
55°F / 13°C 52°F / 11°C 88% 30.04 in
(1017 mb)
N 16.1 mph
(N 26 kph)
- 10SM
01:35
Overcast
55°F / 13°C 52°F / 11°C 88% 30.04 in
(1017 mb)
N 15 mph
(N 24 kph)
- 10SM
01:15
Overcast
57°F / 14°C 52°F / 11°C 82% 30.04 in
(1017 mb)
N 15 mph
(N 24 kph)
- 10SM
00:55
Overcast
57°F / 14°C 52°F / 11°C 82% 30.04 in
(1017 mb)
N 15 mph
(N 24 kph)
- 10SM
00:35
Overcast
57°F / 14°C 52°F / 11°C 82% 30.04 in
(1017 mb)
N 10.4 mph
(N 17 kph)
- 10SM
00:15
Overcast
55°F / 13°C 52°F / 11°C 88% 30.04 in
(1017 mb)
N 15 mph
(N 24 kph)
- 10SM
Time Weather Temperature Dewpoint Humidity Pressure Winds Precip Visibility


Weather for websites

WeatherForYou.com, LLC is not responsible for any damages or problems caused by this service. Current weather conditions are obtained from the closest station including government and personal stations which may have varying degrees of accuracy. Weather forecasts are derived from the NOAA NDFD. Like all things, this site belongs to Jesus Christ... He just trusts us to maintain it. If you have any questions or comments email webmaster@weatherforyou.com

Copyright © 2016, WeatherForYou.com LLC. All rights reserved.